Flag for Australia Weather past 2 weeks in Alice Springs, Northern Territory, Australia

Now
46 °F

Clear.


Feels Like: 44 °F
Forecast: 42 / 73 °F
Wind: 5 mph from Southwest

Location: Alice Springs Aerodrome

Current Time: Sep 4, 2015 at 1:48:23 AM

Latest Report: Sep 4, 2015 at 1:00 AM


Visibility: N/A

Pressure: 30.24 "Hg (28.18 "Hg at 581m altitude)

Humidity: 43%

Dew point: 25 °F

Location of Alice SpringsLocation

Historic Weather in Alice Springs — Graph

°F

Alice Springs temperature yesterday

Maximum temperature yesterday: 70 °F (at 4:00 PM)
Minimum temperature yesterday: 41 °F (at 4:00 AM)
Average temperature yesterday: 55 °F

Past Weeks' High & Low Weather Summary

 TemperatureHumidityPressure
High90 °F (Aug 21, 2:30 PM)100% (Aug 26, 5:30 AM)30.30 "Hg (Aug 26, 5:30 AM)
Low39 °F (Aug 29, 7:00 AM)4% (Aug 21, 12:30 PM)29.80 "Hg (Sep 1, 3:30 PM)
Average64 °F33%30.10 "Hg
* Reported Aug 20 12:30 AM — Sep 4 12:30 AM, Alice Springs, Weather by CustomWeather, © 2015

Note: Actual official high and low records may vary slightly from our data, if they occured in-between our weather recording intervals... More about our weather records

Advertising

Alice Springs weather history for previous 24 hours

 ConditionsComfort  
Time TempWeatherWind HumidityBarometerVisibility
12:30 AM
Fri, Sep 4
46 °FClear.5 mph46%30.24 "HgN/A
12:00 AM48 °FClear.2 mph43%30.24 "HgN/A
11:30 PM
Thu, Sep 3
50 °FClear.7 mph43%30.24 "HgN/A
11:00 PM50 °FClear.No wind37%30.24 "HgN/A
10:30 PM50 °FClear.1 mph47%30.24 "HgN/A
10:00 PM54 °FClear.6 mph44%30.24 "HgN/A
9:30 PM54 °FClear.7 mph38%30.24 "HgN/A
9:00 PM55 °FClear.7 mph36%30.24 "HgN/A
8:30 PM55 °FClear.7 mph33%30.21 "HgN/A
8:00 PM57 °FClear.8 mph31%30.21 "HgN/A
7:30 PM57 °FClear.8 mph29%30.21 "HgN/A
7:00 PM61 °FClear.8 mph23%30.18 "HgN/A
6:30 PM63 °FClear.7 mph22%30.18 "HgN/A
6:00 PM68 °FClear.7 mph18%30.18 "HgN/A
5:30 PM68 °FSunny.7 mph17%30.18 "HgN/A
5:00 PM68 °FSunny.7 mph17%30.15 "HgN/A
4:30 PM70 °FPassing clouds.7 mph13%30.15 "HgN/A
4:00 PM70 °FSunny.7 mph18%30.15 "Hg10 mi
3:30 PM68 °FPassing clouds.8 mph17%30.18 "HgN/A
3:00 PM66 °FPassing clouds.8 mph40%30.18 "HgN/A
2:30 PM68 °FSunny.12 mph16%30.18 "Hg10 mi
2:00 PM66 °FPassing clouds.10 mph19%30.18 "HgN/A
1:30 PM68 °FPassing clouds.10 mph18%30.21 "HgN/A
1:00 PM66 °FSunny.8 mph19%30.21 "HgN/A
12:30 PM64 °FSunny.12 mph19%30.21 "HgN/A
12:00 PM63 °FPassing clouds.6 mph22%30.24 "HgN/A
11:30 AM63 °FSunny.12 mph25%30.27 "Hg10 mi
11:00 AM61 °FPassing clouds.8 mph31%30.27 "HgN/A
10:30 AM59 °FPassing clouds.10 mph36%30.30 "HgN/A
10:00 AM59 °FPassing clouds.10 mph34%30.30 "HgN/A
9:30 AM57 °FSunny.12 mph39%30.30 "Hg10 mi
8:30 AM52 °FSunny.2 mph38%30.27 "Hg10 mi
8:00 AM50 °FSunny.5 mph37%30.27 "Hg10 mi
7:30 AM45 °FSunny.6 mph39%30.24 "Hg10 mi
7:00 AM41 °FSunny.6 mph45%30.24 "Hg10 mi
6:30 AM41 °FSunny.7 mph45%30.21 "Hg10 mi
5:30 AM43 °FClear.8 mph36%30.21 "HgN/A
5:00 AM41 °FClear.6 mph39%30.18 "HgN/A
4:30 AM43 °FClear.6 mph36%30.18 "HgN/A
4:00 AM41 °FClear.7 mph39%30.18 "HgN/A
3:30 AM43 °FClear.5 mph36%30.18 "HgN/A
3:00 AM45 °FClear.6 mph34%30.18 "HgN/A
2:30 AM45 °FClear.6 mph34%30.18 "HgN/A
2:00 AM48 °FClear.5 mph25%30.18 "HgN/A
1:30 AM48 °FClear.5 mph25%30.18 "HgN/A
Weather by CustomWeather, © 2015

See weather overviewHow to use our weather pages